User: anonymous   Login
Location: Acheville
(50.3840°N, 2.8827°E)
Time: 03:04:18
(UTC+00:00)
Language:

Cosmos 1408 - Orbit

View from above orbital plane
View from above orbital plane
View from above satellite
View from above satellite

Ground track
Ground track

The orbit data is extracted from the following two-line orbital elements,

1 13552U 82092A   22020.56270005  .00003121  00000-0  10060-3 0  9995
2 13552  82.5714  57.0860 0025650 272.5347  87.2958 15.31447118 10093
Epoch (UTC): 20 January 2022 13:30:17
Eccentricity: 0.0025650
inclination: 82.5714°
perigee height: 454 km
apogee height: 489 km
right ascension of ascending node: 57.0860°
argument of perigee: 272.5347°
revolutions per day: 15.31447118
mean anomaly at epoch: 87.2958°
orbit number at epoch: 1009

The dashed part of the orbit path shows where the satellite is in the earth's shadow,  

DLR